[[{"header":{"parameterUnit":"m.s-1","parameterCategory":1,"la1":30.2991,"la2":30.254,"lo1":-89.0895,"lo2":-89.0444,"dy":0.0017,"dx":0.0017,"nx":28,"ny":28,"refTime":"2025-01-01T09:00:00:Z","depth":0,"parameterNumber":2,"parameterNumberName":"U-component_of_WINDS"},"data":[0,0,0,0,0,0,0,0,0,0,0,0,0,0,0,0,0,0,0,0,0,0,0,0,0,0,0,0,0,0,0,0,0,0,0,0,0,0,0,0,0,0,0,0,0,0,0,0,0,0,0,0,0,0,0,0,0,0,-0.2383,-0.2383,0,-0.2351,-0.2351,-0.235,-0.2318,-0.2317,-0.2317,-0.2316,-0.2284,-0.2284,-0.2283,0,0,0,0,0,0,0,0,0,0,0,0,0,-0.2416,-0.2416,-0.2383,-0.2383,-0.2382,-0.2351,-0.2351,-0.235,-0.2318,-0.2317,-0.2317,-0.2316,-0.2284,-0.2284,-0.2283,0,0,0,0,0,0,0,0,0,0,0,0,0,-0.2395,-0.2416,-0.2383,-0.2362,-0.236,-0.2351,-0.2351,-0.235,-0.2318,-0.2317,-0.2317,-0.2316,-0.2284,-0.2284,-0.2283,-0.2292,0,0,-0.2281,-0.2281,0,0,0,0,0,0,0,0,-0.2396,-0.2394,-0.2366,-0.2364,-0.2361,-0.2338,-0.235,-0.2331,-0.2318,-0.2334,-0.2316,-0.2316,-0.2302,-0.23,-0.2296,-0.2291,-0.2289,-0.2281,-0.2281,-0.228,-0.228,0,0,0,0,0,0,0,-0.2398,-0.2395,-0.237,-0.2366,-0.2363,-0.2355,-0.2351,-0.2346,-0.2322,-0.2333,-0.233,-0.2327,-0.2301,-0.2296,-0.2295,-0.2289,-0.2281,-0.228,-0.228,-0.228,-0.2288,-0.2289,0,0,0,0,0,0,-0.2402,-0.2396,-0.2371,-0.2369,-0.2377,-0.2355,-0.235,-0.2346,-0.2322,-0.2318,-0.2327,-0.2325,-0.2298,-0.2296,-0.2293,-0.2302,-0.228,-0.228,-0.2279,-0.2288,-0.2288,-0.2289,0,0,0,0,0,0,-0.2403,-0.24,-0.2373,-0.2382,-0.2378,-0.2355,-0.235,-0.2346,-0.2341,-0.2318,-0.2314,-0.2327,-0.2297,-0.2294,-0.2292,-0.2301,-0.2279,-0.2279,-0.2287,-0.2288,-0.2289,-0.232,0,0,0,0,0,0,-0.2404,-0.2401,-0.2404,-0.2382,-0.2378,-0.2373,-0.2351,-0.2346,-0.234,-0.2337,-0.2317,-0.2313,-0.2297,-0.2294,-0.2292,-0.2299,-0.2278,-0.2286,-0.2287,-0.2289,-0.2318,-0.2322,-0.2325,0,0,0,0,0,-0.2405,-0.2414,-0.2405,-0.2402,-0.2381,-0.2373,-0.237,-0.2351,-0.2341,-0.2344,-0.2329,-0.2314,-0.23,-0.2294,-0.2291,-0.2299,-0.2286,-0.2287,-0.2288,-0.2316,-0.2321,-0.2325,0,0,0,0,0,0,-0.2438,-0.2411,-0.24,-0.2402,-0.239,-0.2368,-0.2371,-0.2357,-0.2348,-0.2345,-0.2322,-0.2318,-0.2318,-0.2308,-0.2302,-0.2306,-0.229,-0.2291,-0.2313,-0.2317,-0.232,-0.2323,-0.2278,0,0,0,0,0,-0.2445,-0.2441,-0.2418,-0.2422,-0.2416,-0.2395,-0.239,-0.2377,-0.2363,-0.2358,-0.2343,-0.2331,-0.2324,-0.2319,-0.2312,-0.2316,-0.2311,-0.232,-0.2323,-0.2326,-0.2328,-0.2329,-0.2332,-0.2294,-0.2294,-0.2294,0,0,-0.2461,-0.2446,-0.2444,-0.2428,-0.2417,-0.2413,-0.2391,-0.2387,-0.2384,-0.2358,-0.2355,-0.2343,-0.2328,-0.2329,-0.2329,-0.2321,-0.2337,-0.2328,-0.2331,-0.233,-0.2331,-0.2334,-0.2338,-0.2295,-0.2295,-0.2295,0,0,-0.2487,-0.2475,-0.2477,-0.2466,-0.245,-0.2435,-0.2435,-0.2415,-0.2406,-0.2403,-0.2383,-0.2378,-0.2366,-0.2356,-0.2349,-0.237,-0.2355,-0.2368,-0.2387,-0.2388,-0.2391,-0.2394,-0.2401,-0.2404,-0.2369,-0.2369,-0.2369,0,-0.2508,-0.2501,-0.248,-0.2478,-0.2471,-0.2446,-0.2448,-0.2438,-0.242,-0.2416,-0.2407,-0.2391,-0.2379,-0.2377,-0.2382,-0.2377,-0.2377,-0.2371,-0.2392,-0.2395,-0.2397,-0.2404,-0.2406,-0.2371,-0.2371,-0.2371,-0.2371,0,-0.2528,-0.2524,-0.2527,-0.251,-0.2504,-0.2503,-0.2482,-0.2478,-0.2464,-0.245,-0.2447,-0.2431,-0.242,-0.2418,-0.2405,-0.2414,-0.2409,-0.2397,-0.2381,-0.2402,-0.2408,-0.2411,-0.2373,-0.2373,-0.2372,-0.2372,0,0,-0.2576,-0.2545,-0.2547,-0.2539,-0.2518,-0.2514,-0.2512,-0.25,-0.2497,-0.2485,-0.2483,-0.2473,-0.2461,-0.2453,-0.2438,-0.244,-0.2457,-0.2426,-0.2426,-0.2433,-0.2466,-0.2476,-0.248,-0.2447,-0.2447,-0.2447,-0.2467,0,-0.2598,-0.2594,-0.2574,-0.2576,-0.2571,-0.2546,-0.2545,-0.2532,-0.2519,-0.2512,-0.2498,-0.2491,-0.2475,-0.247,-0.247,-0.2455,-0.2463,-0.2453,-0.2445,-0.2445,-0.245,-0.2483,-0.2494,-0.2514,-0.247,-0.247,-0.247,0,-0.2625,-0.2614,-0.2615,-0.2594,-0.2591,-0.259,-0.2577,-0.2571,-0.2556,-0.2546,-0.2537,-0.252,-0.2517,-0.2501,-0.2496,-0.2489,-0.2485,-0.2476,-0.2477,-0.2476,-0.2459,-0.2483,-0.2519,-0.2523,-0.2474,-0.2474,-0.2473,0,-0.2659,-0.2645,-0.2644,-0.2637,-0.2612,-0.2612,-0.2601,-0.2585,-0.2579,-0.2568,-0.2563,-0.2552,-0.2546,-0.2537,-0.2517,-0.2508,-0.2514,-0.2497,-0.2506,-0.2507,-0.2509,-0.251,-0.2546,-0.2505,-0.2505,-0.2505,-0.2505,0,-0.2687,-0.2689,-0.2659,-0.2658,-0.2659,-0.2635,-0.2637,-0.2624,-0.261,-0.2606,-0.2584,-0.258,-0.2554,-0.2548,-0.2532,-0.253,-0.2528,-0.252,-0.2516,-0.2522,-0.2523,-0.2519,-0.2517,-0.2506,-0.2506,-0.2506,-0.2506,0,-0.2727,-0.2706,-0.2703,-0.268,-0.2673,-0.2675,-0.2655,-0.2653,-0.2638,-0.2633,-0.2631,-0.2607,-0.2598,-0.2577,-0.2563,-0.2553,-0.2555,-0.2547,-0.256,-0.2558,-0.2568,-0.2567,-0.2603,-0.2607,-0.2564,-0.2564,-0.2565,0,-0.2746,-0.2747,-0.2723,-0.2719,-0.2709,-0.2703,-0.2696,-0.2673,-0.2667,-0.2648,-0.2649,-0.2638,-0.2629,-0.2616,-0.2597,-0.2586,-0.2578,-0.2592,-0.2577,-0.2583,-0.2579,-0.2579,-0.2579,-0.2595,-0.2596,-0.2596,-0.2597,0,-0.2784,-0.2773,-0.2765,-0.2752,-0.2745,-0.2734,-0.2722,-0.272,-0.2694,-0.2688,-0.2679,-0.2671,-0.2656,-0.2646,-0.2632,-0.2621,-0.2605,-0.2601,-0.2603,-0.261,-0.2618,-0.2614,-0.257,-0.2601,-0.2601,-0.26,-0.26,-0.26,-0.2814,-0.2813,-0.2796,-0.2787,-0.2775,-0.2764,-0.2761,-0.2745,-0.2737,-0.2723,-0.271,-0.2702,-0.2685,-0.2664,-0.2654,-0.2647,-0.2639,-0.2641,-0.2642,-0.2643,-0.2646,-0.2618,-0.2645,-0.2644,-0.2644,-0.2644,-0.2644,0,-0.285,-0.2838,-0.2829,-0.2813,-0.2806,-0.279,-0.2776,-0.2771,-0.2764,-0.275,-0.2741,-0.273,-0.2719,-0.27,-0.2687,-0.2686,-0.2678,-0.2683,-0.2684,-0.2681,-0.2654,-0.2654,-0.269,-0.269,-0.269,-0.269,-0.269,-0.269,-0.2868,-0.2866,-0.2853,-0.2845,-0.2832,-0.2824,-0.2817,-0.2807,-0.2795,-0.2784,-0.2775,-0.2762,-0.2745,-0.2732,-0.2721,-0.2716,-0.2712,-0.2721,-0.2713,-0.2688,-0.2683,-0.2679,-0.2679,-0.272,-0.272,-0.2741,-0.2741,-0.2741]},{"header":{"parameterUnit":"m.s-1","parameterCategory":1,"la1":30.2991,"la2":30.254,"lo1":-89.0895,"lo2":-89.0444,"dy":0.0017,"dx":0.0017,"nx":28,"ny":28,"refTime":"2025-01-01T09:00:00:Z","depth":0,"parameterNumber":3,"parameterNumberName":"V-component_of_WINDS"},"data":[0,0,0,0,0,0,0,0,0,0,0,0,0,0,0,0,0,0,0,0,0,0,0,0,0,0,0,0,0,0,0,0,0,0,0,0,0,0,0,0,0,0,0,0,0,0,0,0,0,0,0,0,0,0,0,0,0,0,-4.1247,-4.1248,0,-4.1318,-4.1319,-4.132,-4.1327,-4.1326,-4.1325,-4.1325,-4.1392,-4.1394,-4.1397,0,0,0,0,0,0,0,0,0,0,0,0,0,-4.1115,-4.1117,-4.1247,-4.1248,-4.1249,-4.1318,-4.1319,-4.132,-4.1327,-4.1326,-4.1325,-4.1324,-4.1391,-4.1394,-4.1397,0,0,0,0,0,0,0,0,0,0,0,0,0,-4.1177,-4.1118,-4.1247,-4.1261,-4.1263,-4.1318,-4.1319,-4.132,-4.1327,-4.1326,-4.1325,-4.1324,-4.139,-4.1394,-4.1397,-4.1442,0,0,-4.1409,-4.141,0,0,0,0,0,0,0,0,-4.1174,-4.1182,-4.1258,-4.126,-4.1262,-4.1313,-4.1297,-4.1361,-4.1327,-4.1302,-4.1325,-4.1323,-4.1366,-4.1372,-4.1387,-4.1445,-4.1448,-4.1409,-4.1411,-4.1413,-4.1414,0,0,0,0,0,0,0,-4.1169,-4.1179,-4.1275,-4.1259,-4.1262,-4.1262,-4.127,-4.1309,-4.1339,-4.1305,-4.1305,-4.1314,-4.1367,-4.1383,-4.1389,-4.1449,-4.1409,-4.1412,-4.1414,-4.1416,-4.1548,-4.1549,0,0,0,0,0,0,-4.1163,-4.1175,-4.1273,-4.1277,-4.1215,-4.1266,-4.1274,-4.1297,-4.1339,-4.1344,-4.1315,-4.1314,-4.1378,-4.1384,-4.1391,-4.1447,-4.1413,-4.1416,-4.1418,-4.1546,-4.1548,-4.1549,0,0,0,0,0,0,-4.116,-4.1172,-4.127,-4.1227,-4.1239,-4.1269,-4.1295,-4.1299,-4.1316,-4.1347,-4.1352,-4.1326,-4.1377,-4.1386,-4.143,-4.1449,-4.1418,-4.1421,-4.1545,-4.1547,-4.1549,-4.1558,0,0,0,0,0,0,-4.1156,-4.1171,-4.1188,-4.1227,-4.1241,-4.1308,-4.1296,-4.1301,-4.1323,-4.1323,-4.1359,-4.1364,-4.1377,-4.1424,-4.1433,-4.1454,-4.1424,-4.1543,-4.1546,-4.1548,-4.1556,-4.156,-4.1563,0,0,0,0,0,-4.1152,-4.1187,-4.1189,-4.1201,-4.1265,-4.131,-4.1318,-4.1334,-4.1324,-4.1342,-4.1362,-4.1363,-4.1446,-4.1429,-4.1439,-4.1461,-4.1542,-4.1545,-4.1548,-4.1554,-4.1559,-4.1563,0,0,0,0,0,0,-4.1147,-4.1192,-4.1195,-4.1244,-4.1273,-4.1311,-4.1334,-4.1338,-4.1369,-4.1367,-4.1384,-4.1392,-4.1436,-4.1452,-4.1433,-4.1507,-4.1493,-4.1498,-4.1494,-4.1499,-4.1503,-4.1498,-4.1427,0,0,0,0,0,-4.1152,-4.1186,-4.1223,-4.1263,-4.1277,-4.1303,-4.1323,-4.1333,-4.1363,-4.1375,-4.1398,-4.1426,-4.1459,-4.148,-4.1511,-4.1559,-4.1567,-4.1579,-4.1582,-4.1585,-4.1589,-4.1617,-4.1623,-4.1559,-4.1559,-4.1559,0,0,-4.1162,-4.1191,-4.1211,-4.1263,-4.1286,-4.1321,-4.1313,-4.1349,-4.1375,-4.138,-4.1424,-4.1442,-4.1474,-4.152,-4.1542,-4.1536,-4.1609,-4.1589,-4.1591,-4.1594,-4.1621,-4.1627,-4.1632,-4.1561,-4.1561,-4.156,0,0,-4.1198,-4.1224,-4.126,-4.1285,-4.1322,-4.1339,-4.1348,-4.1386,-4.1399,-4.1443,-4.1449,-4.1478,-4.1534,-4.1557,-4.1576,-4.1624,-4.1625,-4.1633,-4.1652,-4.1679,-4.1684,-4.1689,-4.1706,-4.1712,-4.1637,-4.1637,-4.1637,0,-4.1206,-4.1259,-4.1278,-4.1315,-4.1338,-4.1347,-4.1384,-4.1406,-4.1451,-4.1466,-4.1459,-4.153,-4.1552,-4.1605,-4.1617,-4.1631,-4.1642,-4.1629,-4.1682,-4.1687,-4.1691,-4.1708,-4.1715,-4.1638,-4.1638,-4.1638,-4.1638,0,-4.1267,-4.1304,-4.1329,-4.1375,-4.14,-4.1437,-4.146,-4.1483,-4.1492,-4.1509,-4.1555,-4.1582,-4.1621,-4.1634,-4.1641,-4.1688,-4.1683,-4.1679,-4.1665,-4.1698,-4.1714,-4.1721,-4.1639,-4.1639,-4.1639,-4.1639,0,0,-4.1301,-4.1359,-4.1368,-4.139,-4.1432,-4.146,-4.1497,-4.1537,-4.1557,-4.1587,-4.1619,-4.1667,-4.1664,-4.1686,-4.1696,-4.1719,-4.1756,-4.1712,-4.1713,-4.172,-4.1811,-4.1814,-4.1821,-4.1758,-4.1759,-4.176,-4.1808,0,-4.1343,-4.1412,-4.143,-4.1488,-4.1523,-4.1533,-4.1565,-4.1594,-4.1612,-4.1643,-4.1662,-4.1696,-4.1689,-4.1703,-4.1727,-4.1747,-4.1775,-4.1744,-4.1787,-4.1788,-4.1779,-4.183,-4.1833,-4.1877,-4.1815,-4.1816,-4.1817,0,-4.14,-4.1435,-4.1497,-4.1537,-4.1553,-4.1582,-4.162,-4.165,-4.1683,-4.1695,-4.172,-4.1729,-4.1767,-4.1752,-4.1805,-4.1784,-4.1802,-4.1815,-4.1817,-4.1822,-4.1805,-4.1836,-4.1891,-4.1898,-4.1827,-4.1826,-4.1825,0,-4.142,-4.1483,-4.1528,-4.1546,-4.1594,-4.1614,-4.1635,-4.1667,-4.169,-4.1723,-4.1739,-4.1775,-4.1795,-4.1822,-4.184,-4.1827,-4.1892,-4.1878,-4.1902,-4.1902,-4.1915,-4.1914,-4.1975,-4.1927,-4.1927,-4.1926,-4.1926,0,-4.1465,-4.1503,-4.1538,-4.1566,-4.1609,-4.163,-4.1671,-4.1691,-4.1721,-4.1752,-4.1762,-4.1791,-4.1813,-4.1845,-4.1859,-4.1901,-4.191,-4.192,-4.1923,-4.1919,-4.1918,-4.1932,-4.1929,-4.1928,-4.1928,-4.1927,-4.1927,0,-4.1495,-4.152,-4.1571,-4.1613,-4.1624,-4.1654,-4.1689,-4.1716,-4.1735,-4.1775,-4.1785,-4.1815,-4.1853,-4.1874,-4.1921,-4.193,-4.1978,-4.1979,-4.1968,-4.1969,-4.1993,-4.199,-4.2064,-4.2075,-4.2019,-4.202,-4.202,0,-4.1522,-4.1552,-4.1598,-4.1621,-4.1643,-4.1679,-4.1704,-4.1725,-4.175,-4.1792,-4.1814,-4.1853,-4.1886,-4.1947,-4.1971,-4.2007,-4.201,-4.2033,-4.2015,-4.2011,-4.2011,-4.201,-4.2013,-4.2036,-4.2037,-4.2037,-4.2038,0,-4.1568,-4.158,-4.1616,-4.1657,-4.1687,-4.1719,-4.1751,-4.1769,-4.1796,-4.1824,-4.1864,-4.189,-4.194,-4.1979,-4.2018,-4.2037,-4.2042,-4.2043,-4.2051,-4.2048,-4.204,-4.2045,-4.1977,-4.2041,-4.2041,-4.2041,-4.2041,-4.204,-4.1597,-4.1625,-4.1663,-4.1703,-4.173,-4.1761,-4.1789,-4.1813,-4.1848,-4.1892,-4.1902,-4.1945,-4.1979,-4.2032,-4.2052,-4.2086,-4.2081,-4.2092,-4.2095,-4.2097,-4.2099,-4.2035,-4.2092,-4.2092,-4.2092,-4.2092,-4.2092,0,-4.1645,-4.167,-4.1707,-4.1754,-4.1786,-4.179,-4.1826,-4.1852,-4.1891,-4.1922,-4.1955,-4.2002,-4.2041,-4.2069,-4.2108,-4.2129,-4.2133,-4.2139,-4.2137,-4.2142,-4.21,-4.209,-4.2136,-4.2136,-4.2136,-4.2136,-4.2136,-4.2136,-4.1673,-4.1721,-4.1737,-4.1799,-4.1823,-4.1868,-4.1888,-4.1916,-4.1942,-4.1995,-4.2028,-4.2047,-4.2078,-4.2119,-4.2154,-4.2162,-4.2176,-4.2182,-4.2189,-4.2149,-4.2145,-4.214,-4.2131,-4.2185,-4.2185,-4.2229,-4.2229,-4.223]}]]